TimeCST,TemperatureF,Dew PointF,Humidity,Sea Level PressureIn,VisibilityMPH,Wind Direction,Wind SpeedMPH,Gust SpeedMPH,PrecipitationIn,Events,Conditions,WindDirDegrees,DateUTC
12:53 AM,28.9,14.0,54,29.70,10.0,SSE,13.8,-,N/A,,Scattered Clouds,160,2014-01-30 06:53:00
1:53 AM,28.9,14.0,54,29.67,10.0,South,16.1,-,N/A,,Mostly Cloudy,180,2014-01-30 07:53:00
2:53 AM,28.9,14.0,54,29.65,10.0,South,16.1,-,N/A,,Partly Cloudy,180,2014-01-30 08:53:00
3:53 AM,30.0,14.0,51,29.63,10.0,ENE,4.6,-,N/A,,Overcast,70,2014-01-30 09:53:00
4:53 AM,30.0,15.1,54,29.60,10.0,South,10.4,-,N/A,,Overcast,170,2014-01-30 10:53:00
5:53 AM,30.9,15.1,52,29.58,10.0,SSE,8.1,-,N/A,,Overcast,150,2014-01-30 11:53:00
6:53 AM,30.9,15.1,52,29.55,10.0,South,16.1,-,N/A,,Overcast,170,2014-01-30 12:53:00
7:49 AM,30.2,17.6,60,29.48,2.5,South,18.4,29.9,0.00,Snow,Light Snow,170,2014-01-30 13:49:00
7:53 AM,28.9,18.0,64,29.52,2.0,SSE,19.6,29.9,0.00,Snow,Light Snow,160,2014-01-30 13:53:00
8:00 AM,28.9,19.0,67,29.53,1.2,SSW,23.0,28.8,0.00,Snow,Light Snow,200,2014-01-30 14:00:00
8:33 AM,27.0,21.9,81,29.54,0.5,South,10.4,-,0.02,Snow,Snow,190,2014-01-30 14:33:00
8:40 AM,27.0,23.0,85,29.54,0.5,South,5.8,-,0.02,Fog-Snow,Snow,170,2014-01-30 14:40:00
8:47 AM,26.6,24.8,93,29.54,1.2,SSE,3.5,-,0.03,Snow,Light Snow,160,2014-01-30 14:47:00
8:53 AM,27.0,24.1,89,29.59,2.5,South,3.5,-,0.03,Snow,Light Snow,170,2014-01-30 14:53:00
8:57 AM,27.0,23.0,85,29.54,1.0,SE,3.5,-,0.00,Snow,Light Snow,140,2014-01-30 14:57:00
9:03 AM,27.0,23.0,85,29.53,0.2,South,4.6,-,0.00,Fog-Snow,Snow,170,2014-01-30 15:03:00
9:09 AM,27.0,24.1,89,29.52,0.5,ESE,5.8,-,0.01,Fog-Snow,Snow,110,2014-01-30 15:09:00
9:17 AM,27.0,24.1,89,29.52,2.0,SE,4.6,-,0.01,Snow,Light Snow,130,2014-01-30 15:17:00
9:24 AM,27.0,23.0,85,29.52,9.0,ESE,4.6,-,0.01,,Overcast,110,2014-01-30 15:24:00
9:33 AM,27.0,23.0,85,29.52,10.0,East,3.5,-,0.01,,Overcast,100,2014-01-30 15:33:00
9:53 AM,28.0,21.9,78,29.56,10.0,ESE,5.8,-,0.01,,Overcast,110,2014-01-30 15:53:00
10:25 AM,30.0,21.0,69,29.52,2.5,SSW,19.6,27.6,0.00,Snow,Light Snow,210,2014-01-30 16:25:00
10:31 AM,28.9,23.0,78,29.52,0.8,SSW,23.0,29.9,0.00,Snow,Light Snow,200,2014-01-30 16:31:00
10:44 AM,28.0,25.0,88,29.52,0.5,South,9.2,-,0.01,Fog-Snow,Snow,190,2014-01-30 16:44:00
10:53 AM,28.0,25.0,88,29.55,0.8,South,10.4,-,0.02,Snow,Light Snow,190,2014-01-30 16:53:00
11:26 AM,28.0,25.0,88,29.50,1.0,South,8.1,-,0.02,Snow,Light Snow,180,2014-01-30 17:26:00
11:38 AM,28.0,26.1,92,29.49,1.2,South,8.1,-,0.02,Snow,Light Snow,170,2014-01-30 17:38:00
11:53 AM,28.0,26.1,92,29.52,1.0,South,6.9,-,0.02,Snow,Light Snow,170,2014-01-30 17:53:00
11:58 AM,28.9,26.1,89,29.48,0.8,South,6.9,-,0.01,Snow,Light Snow,170,2014-01-30 17:58:00
12:10 PM,28.9,27.0,92,29.48,1.2,South,5.8,-,0.01,Snow,Light Snow,180,2014-01-30 18:10:00
12:28 PM,28.9,27.0,92,29.48,1.5,South,6.9,-,0.02,Snow,Light Snow,180,2014-01-30 18:28:00
12:51 PM,30.9,27.0,85,29.52,2.0,South,11.5,-,0.02,Snow,Light Snow,190,2014-01-30 18:51:00
1:01 PM,30.9,27.0,85,29.48,4.0,SSW,9.2,-,0.00,,Overcast,200,2014-01-30 19:01:00
1:35 PM,32.0,26.1,79,29.49,10.0,West,13.8,-,0.00,,Overcast,260,2014-01-30 19:35:00
1:53 PM,32.0,26.1,79,29.54,10.0,West,12.7,-,0.00,,Overcast,270,2014-01-30 19:53:00
2:18 PM,30.9,25.0,79,29.52,10.0,NW,19.6,-,0.00,,Overcast,320,2014-01-30 20:18:00
2:53 PM,27.0,21.0,78,29.62,6.0,NW,25.3,-,0.00,,Haze,320,2014-01-30 20:53:00
3:43 PM,24.1,17.1,75,29.64,10.0,NNW,17.3,-,N/A,,Scattered Clouds,330,2014-01-30 21:43:00
3:53 PM,23.0,16.0,74,29.70,10.0,NW,13.8,-,N/A,,Scattered Clouds,310,2014-01-30 21:53:00
4:05 PM,24.1,16.0,71,29.68,10.0,NW,15.0,-,N/A,,Mostly Cloudy,320,2014-01-30 22:05:00
4:53 PM,21.9,12.9,68,29.77,10.0,WNW,12.7,-,N/A,,Overcast,300,2014-01-30 22:53:00
5:11 PM,19.9,10.9,68,29.75,10.0,WNW,12.7,-,N/A,,Scattered Clouds,300,2014-01-30 23:11:00
5:53 PM,18.0,9.0,68,29.83,10.0,NW,17.3,-,N/A,,Clear,320,2014-01-30 23:53:00
6:53 PM,15.1,6.1,68,29.86,10.0,NNW,12.7,-,N/A,,Clear,330,2014-01-31 00:53:00
7:53 PM,14.0,3.9,64,29.89,10.0,NW,10.4,-,N/A,,Clear,320,2014-01-31 01:53:00
8:53 PM,9.0,1.0,70,29.96,10.0,WNW,6.9,-,N/A,,Clear,290,2014-01-31 02:53:00
9:53 PM,12.9,1.9,62,30.01,10.0,WNW,12.7,-,N/A,,Clear,300,2014-01-31 03:53:00
10:53 PM,7.0,-0.9,70,30.05,10.0,West,10.4,-,N/A,,Clear,270,2014-01-31 04:53:00
11:53 PM,5.0,-4.0,66,30.07,10.0,West,10.4,-,N/A,,Clear,280,2014-01-31 05:53:00